New Orleans NAS, LA

6:52 PM CST on January 17, 2018 (GMT -0600)
New Orleans Naval Air Station

Weather History for KNBG - October, 2012

Change the Weather History Date:

Friday, October 5, 2012

  Actual Average Record
Temperature  
Mean Temperature 76 °F -  
Max Temperature 104 °F 78 °F 104 °F (2012)
Min Temperature 68 °F 64 °F 48 °F (2011)
Cooling Degree Days 10    
Growing Degree Days 26 (Base 50)    
Moisture  
Dew Point 64 °F    
Average Humidity 72    
Maximum Humidity 84    
Minimum Humidity 41    
Precipitation  
Precipitation 0.00 in - - ()
Sea Level Pressure  
Sea Level Pressure 30.11 in    
Wind  
Wind Speed 1 mph (NE)    
Max Wind Speed 9 mph    
Max Gust Speed -    
Visibility 6 miles    
Events Fog , Rain    
Averages and records for this station are not official NWS values.
T = Trace of Precipitation, MM = Missing Value Source: NWS Daily Summary

Daily Weather History Graph

Daily Weather History Graph

Search for Another Location

Airport or City:

Trip Planner

Search our weather history database for the weather conditions in past years. The results will help you decide how hot, cold, wet, or windy it might be!

Date:

Astronomy

Oct. 05, 2012 Rise Set
Actual Time 6:56 AM CDT 6:40 PM CDT
Civil Twilight 6:32 AM CDT 7:04 PM CDT
Nautical Twilight 6:04 AM CDT 7:31 PM CDT
Astronomical Twilight 5:36 AM CDT 7:59 PM CDT
Moon 10:23 PM CDT (10/5) 11:43 AM CDT (10/5)
Length of Visible Light 12h 31m
Length of Day
11h 44m
Waning Gibbous, 74% of the Moon is Illuminated
Oct 5
Waning Gibbous
Oct 8
Last Quarter
Oct 15
New
Oct 21
First Quarter
Oct 29
Full

Hourly Weather History & Observations

Time (CDT) Temp. Heat Index Dew Point Humidity Pressure Visibility Wind Dir Wind Speed Gust Speed Precip Events Conditions
12:19 AM 71.6 °F - 64.4 °F 78% 30.16 in 7.0 mi Calm Calm - N/A   Clear
12:55 AM 71.1 °F - 64.9 °F 81% 30.15 in 10.0 mi Calm Calm - N/A   Clear
1:23 AM 69.8 °F - 64.4 °F 83% 30.15 in 1.8 mi Calm Calm - N/A Rain Light Rain
1:38 AM 69.8 °F - 64.4 °F 83% 30.15 in 3.0 mi Calm Calm - N/A   Haze
2:50 AM 69.8 °F - 62.6 °F 78% 30.14 in 2.0 mi Calm Calm - N/A   Haze
2:53 AM 69.8 °F - 62.6 °F 78% 30.14 in 1.0 mi Calm Calm - N/A   Haze
2:55 AM 69.1 °F - 63.0 °F 81% 30.14 in 0.8 mi Calm Calm - N/A   Haze
3:55 AM 70.0 °F - 64.0 °F 81% 30.12 in 7.0 mi Calm Calm - N/A   Clear
4:55 AM 73.9 °F - 64.0 °F 71% 30.13 in 6.0 mi Calm Calm - N/A   Haze
5:41 AM 69.8 °F - 62.6 °F 78% 30.13 in 1.8 mi Calm Calm - N/A   Haze
5:53 AM 69.8 °F - 64.4 °F 83% 30.14 in 3.0 mi Calm Calm - N/A   Haze
6:11 AM 69.8 °F - 64.4 °F 83% 30.14 in 3.0 mi Calm Calm - N/A   Scattered Clouds
6:53 AM 69.8 °F - 64.4 °F 83% 30.14 in 0.5 mi NNE 3.5 mph - N/A Fog Fog
6:55 AM 69.1 °F - 64.0 °F 84% 30.14 in 0.5 mi NNE 3.5 mph - N/A Fog Fog
7:23 AM 68.0 °F - 62.6 °F 83% 30.14 in 1.0 mi Calm Calm - N/A   Scattered Clouds
7:55 AM 72.0 °F - 64.9 °F 78% 30.14 in 2.0 mi Calm Calm - N/A   Scattered Clouds
8:51 AM 73.4 °F - 68.0 °F 83% 30.15 in 6.0 mi Variable 3.5 mph - N/A   Haze
8:55 AM 73.6 °F - 68.0 °F 83% 30.14 in 6.0 mi NE 3.5 mph - N/A   Haze
9:55 AM 77.9 °F - 66.9 °F 69% 30.14 in 10.0 mi NNE 4.6 mph - N/A   Scattered Clouds
10:55 AM 80.2 °F 82.3 °F 66.0 °F 62% 30.14 in 10.0 mi East 3.5 mph - N/A   Scattered Clouds
11:55 AM 80.6 °F 82.7 °F 66.0 °F 61% 30.13 in 10.0 mi NNE 8.1 mph - N/A   Scattered Clouds
12:55 PM 83.3 °F 84.3 °F 63.0 °F 50% 30.11 in 10.0 mi NE 6.9 mph - N/A   Scattered Clouds
1:55 PM 81.1 °F 81.8 °F 60.1 °F 49% 30.07 in 10.0 mi ENE 9.2 mph - N/A   Scattered Clouds
2:55 PM 83.3 °F 82.9 °F 57.9 °F 42% 30.05 in 10.0 mi ENE 6.9 mph - N/A   Partly Cloudy
3:55 PM 81.5 °F 81.1 °F 55.9 °F 41% 30.03 in 10.0 mi East 4.6 mph - N/A   Partly Cloudy
4:55 PM 81.0 °F 81.3 °F 59.0 °F 47% 30.01 in 10.0 mi Calm Calm - N/A   Partly Cloudy
5:55 PM 79.0 °F - 64.0 °F 60% 30.02 in 10.0 mi Calm Calm - N/A   Partly Cloudy
7:55 PM 75.0 °F - 66.0 °F 73% 30.02 in 10.0 mi Calm Calm - N/A   Clear
8:55 PM 73.0 °F - 66.0 °F 79% 30.03 in 10.0 mi Calm Calm - N/A   Clear
9:55 PM 72.0 °F - 64.0 °F 76% 30.03 in 10.0 mi Calm Calm - N/A   Clear
10:55 PM 71.1 °F - 64.0 °F 78% 30.03 in 7.0 mi Calm Calm - N/A   Clear